Location: Proctor
(47.8934°N, 114.3048°W)
Time: 17:19:16
(UTC+00:00)

Transit 4A - Pass Details

Date: 16 May 2025
Orbit: 866 x 975 km, 66.8° (Epoch: 13 June)

Event Time Altitude Azimuth Distance (km) Brightness Sun altitude
Rises 11:05:04 0° 325° (NW) 3,596 11.1 -7.9°
Reaches altitude 10° 11:07:39 10° 328° (NNW) 2,632 10.4 -7.6°
Maximum altitude 11:13:45 70° 53° (NE) 960 8.3 -6.8°
Drops below altitude 10° 11:19:38 10° 137° (SE) 2,545 10.3 -6.0°
Sets 11:22:06 0° 139° (SE) 3,468 10.9 -5.7°
